1494378000.74,15573,12.13,72544.3,-15.47,-16.93,-16.93,0,*62
1494378001.95,15574,12.19,72548.5,-15.45,-16.83,-16.93,0,*66
1494378003.17,15575,12.13,72544.3,-15.45,-16.83,-16.83,0,*66
1494378004.39,15576,12.13,72544.8,-15.45,-16.93,-16.83,0,*64
1494378005.63,15577,12.13,72546.0,-15.47,-16.93,-16.83,0,*67
1494378006.86,15578,12.13,72546.8,-15.47,-16.93,-16.93,0,*69
1494378008.1,15579,12.13,72544.8,-15.47,-16.93,-16.83,0,*69
1494378009.34,15580,12.13,72544.0,-15.47,-16.83,-16.93,0,*6F
1494378010.55,15581,12.13,72546.3,-15.45,-16.93,-16.83,0,*6C
1494378011.79,15582,12.13,72546.3,-15.47,-16.93,-16.83,0,*6D
1494378013.03,15583,12.13,72544.8,-15.47,-16.93,-16.83,0,*6C
1494378014.27,15584,12.13,72542.0,-15.47,-16.93,-16.83,0,*6B
1494378015.49,15585,12.13,72544.5,-15.49,-16.97,-16.97,0,*65
1494378016.74,15586,12.13,72544.8,-15.47,-16.97,-16.83,0,*6D
1494378017.97,15587,12.13,72542.0,-15.47,-16.93,-16.83,0,*68
1494378019.19,15588,12.19,72548.3,-15.49,-16.89,-16.97,0,*67
1494378020.41,15589,12.13,72542.5,-15.49,-16.97,-16.97,0,*69
1494378021.63,15590,12.13,72546.0,-15.49,-16.89,-16.97,0,*6E
1494378022.84,15591,12.13,72546.3,-15.49,-16.97,-16.89,0,*6F
1494378024.09,15592,12.13,72544.0,-15.47,-16.83,-16.83,0,*6D
1494378025.31,15593,12.13,72542.0,-15.49,-16.97,-16.97,0,*62
1494378026.52,15594,12.13,72542.8,-15.49,-16.97,-16.97,0,*65
1494378027.76,15595,12.13,72542.8,-15.47,-16.93,-16.93,0,*6A
1494378028.97,15596,12.13,72546.0,-15.49,-16.97,-16.97,0,*67
1494378030.19,15597,12.13,72542.8,-15.49,-16.97,-16.97,0,*66
1494378031.41,15598,12.13,72546.3,-15.49,-16.89,-16.89,0,*69
1494378032.62,15599,12.13,72544.8,-15.49,-16.89,-16.89,0,*68
1494378033.86,15600,12.13,72544.0,-15.51,-16.97,-16.89,0,*6D
1494378035.08,15601,12.13,72544.5,-15.49,-16.97,-16.97,0,*6A
1494378036.29,15602,12.13,72540.3,-15.49,-16.97,-16.89,0,*66
1494378037.54,15603,12.13,72542.0,-15.49,-17.03,-16.97,0,*64
1494378038.75,15604,12.13,72542.8,-15.49,-16.97,-16.89,0,*60
1494378040.0,15605,12.13,72542.8,-15.49,-17.03,-16.97,0,*62
1494378041.21,15606,12.13,72546.0,-15.49,-16.97,-16.97,0,*6D
1494378042.46,15607,12.13,72544.5,-15.51,-16.97,-16.97,0,*65
1494378043.69,15608,12.13,72544.3,-15.51,-16.97,-16.89,0,*65
1494378044.93,15609,12.13,72546.0,-15.51,-16.97,-16.97,0,*6B
1494378046.2,15610,12.13,72544.5,-15.51,-16.97,-17.03,0,*6F
1494378047.47,15611,12.13,72544.3,-15.51,-16.97,-17.03,0,*6E
1494378048.74,15612,12.13,72542.5,-15.51,-16.97,-17.03,0,*6D
1494378049.96,15613,12.13,72542.8,-15.53,-16.97,-16.97,0,*62
1494378051.18,15614,12.13,72540.5,-15.53,-16.97,-16.89,0,*6A
1494378052.42,15615,12.13,72542.3,-15.51,-16.97,-16.97,0,*66
1494378053.66,15616,12.13,72542.8,-15.51,-16.89,-16.97,0,*6A
1494378054.9,15617,12.13,72542.5,-15.51,-16.97,-16.89,0,*6B
1494378056.14,15618,12.13,72542.8,-15.51,-16.97,-16.89,0,*64
1494378057.38,15619,12.13,72542.0,-15.51,-16.97,-16.97,0,*6A
1494378058.62,15620,12.13,72546.5,-15.53,-17.03,-16.97,0,*6E
1494378059.87,15621,12.13,72542.3,-15.53,-17.03,-16.97,0,*6F
1494378061.09,15622,12.13,72540.0,-15.53,-16.97,-16.97,0,*60
1494378062.34,15623,12.13,72540.5,-15.53,-17.03,-16.89,0,*62
1494378063.61,15624,12.13,72540.3,-15.51,-17.03,-16.97,0,*68
1494378064.87,15625,12.13,72540.3,-15.51,-17.11,-16.97,0,*6A
1494378066.14,15626,12.13,72542.3,-15.51,-17.03,-16.97,0,*6A
1494378067.41,15627,12.13,72542.3,-15.53,-17.03,-17.03,0,*65
1494378068.71,15628,12.13,72546.0,-15.57,-17.03,-17.03,0,*6E
1494378069.95,15629,12.13,72540.3,-15.53,-17.03,-16.97,0,*67
1494378071.17,15630,12.13,72542.5,-15.53,-16.97,-16.97,0,*63
1494378072.39,15631,12.13,72540.0,-15.53,-16.97,-16.97,0,*62
1494378073.64,15632,12.13,72540.8,-15.53,-16.97,-17.03,0,*6D
1494378074.86,15633,12.13,72540.8,-15.53,-16.97,-16.97,0,*60
1494378076.1,15634,12.13,72540.8,-15.57,-16.93,-16.93,0,*63
1494378077.34,15635,12.13,72542.3,-15.53,-17.03,-16.97,0,*6A
1494378078.56,15636,12.13,72540.5,-15.53,-16.97,-16.97,0,*65
1494378079.81,15637,12.13,72542.0,-15.53,-16.97,-17.03,0,*68
1494378081.11,15638,12.13,72542.5,-15.57,-17.03,-17.03,0,*6F
1494378082.4,15639,12.13,72542.3,-15.57,-17.07,-17.03,0,*6A
1494378083.69,15640,12.13,72542.3,-15.57,-17.07,-17.03,0,*64
1494378084.96,15641,12.13,72538.0,-15.57,-17.03,-16.93,0,*69
1494378086.25,15642,12.13,72538.3,-15.57,-17.07,-17.03,0,*66
1494378087.54,15643,12.13,72540.5,-15.57,-17.03,-17.03,0,*63
1494378088.84,15644,12.13,72536.3,-15.57,-17.03,-17.03,0,*64
1494378090.13,15645,12.13,72540.0,-15.57,-17.03,-17.03,0,*65
1494378091.42,15646,12.13,72538.3,-15.57,-17.03,-17.03,0,*66
1494378092.72,15647,12.13,72538.8,-15.57,-17.03,-17.03,0,*67
1494378094.01,15648,12.13,72542.3,-15.57,-17.03,-17.03,0,*68
1494378095.27,15649,12.13,72542.8,-15.57,-17.03,-16.93,0,*61
1494378096.53,15650,12.13,72540.0,-15.59,-17.03,-17.17,0,*6A
1494378097.8,15651,12.13,72542.5,-15.57,-16.93,-17.03,0,*68
1494378099.03,15652,12.13,72546.3,-15.59,-16.93,-17.03,0,*65
1494378100.29,15653,12.13,72540.0,-15.59,-17.03,-17.03,0,*6C
1494378101.56,15654,12.13,72542.8,-15.59,-17.03,-17.03,0,*6B
1494378102.76,15655,12.13,72542.8,-15.59,-16.93,-16.93,0,*6A
1494378104.03,15656,12.13,72546.0,-15.59,-17.07,-17.07,0,*69
1494378105.29,15657,12.13,72544.0,-15.59,-17.03,-17.03,0,*68
1494378106.56,15658,12.13,72540.8,-15.59,-17.03,-17.03,0,*67
1494378107.82,15659,12.13,72540.5,-15.59,-17.03,-17.03,0,*66
1494378109.09,15660,12.13,72544.8,-15.59,-17.03,-17.03,0,*6C
1494378110.35,15661,12.13,72540.8,-15.59,-17.03,-17.03,0,*6D
1494378111.59,15662,12.19,72546.5,-15.59,-16.93,-17.07,0,*62
1494378112.85,15663,12.13,72540.8,-15.59,-17.07,-17.03,0,*6B
1494378114.15,15664,12.13,72544.0,-15.61,-17.21,-17.07,0,*67
1494378115.42,15665,12.13,72550.3,-15.59,-17.03,-17.03,0,*69
1494378116.68,15666,12.13,72546.3,-15.59,-17.03,-17.03,0,*6A
1494378117.88,15667,12.13,72542.8,-15.59,-16.93,-16.93,0,*6B
1494378119.18,15668,12.13,72542.8,-15.61,-17.11,-17.07,0,*68
1494378120.48,15669,12.13,72542.0,-15.61,-17.11,-17.07,0,*69
1494378121.78,15670,12.13,72544.0,-15.61,-17.07,-17.07,0,*66
1494378123.05,15671,12.13,72544.3,-15.63,-17.07,-17.07,0,*65
1494378124.36,15672,12.13,72544.0,-15.61,-17.07,-17.07,0,*64
1494378125.66,15673,12.13,72540.3,-15.61,-17.07,-17.07,0,*65
1494378126.9,15674,12.13,72542.8,-15.63,-17.07,-16.97,0,*68
1494378128.2,15675,12.13,72542.0,-15.61,-17.07,-17.07,0,*63
1494378129.5,15676,12.13,72542.8,-15.61,-17.07,-17.07,0,*60
1494378130.8,15677,12.13,72546.0,-15.61,-17.07,-17.07,0,*61
1494378132.1,15678,12.13,72544.0,-15.61,-17.07,-17.07,0,*6E
1494378133.4,15679,12.13,72544.3,-15.61,-17.07,-17.07,0,*6F
1494378134.62,15680,12.13,72544.8,-15.63,-16.97,-16.97,0,*6B
1494378135.88,15681,12.13,72540.5,-15.61,-17.07,-16.97,0,*60
1494378137.13,15682,12.13,72542.0,-15.63,-17.07,-16.97,0,*61
1494378138.43,15683,12.13,72542.3,-15.61,-17.07,-17.07,0,*6A
1494378139.64,15684,12.13,72540.3,-15.63,-16.97,-16.97,0,*6F
1494378140.94,15685,12.13,72542.5,-15.61,-17.07,-17.07,0,*6C
1494378142.16,15686,12.13,72540.0,-15.63,-16.97,-16.97,0,*6D
1494378143.4,15687,12.13,72540.3,-15.61,-16.97,-16.97,0,*6E
1494378144.67,15688,12.13,72538.3,-15.63,-17.07,-17.07,0,*63
1494378145.89,15689,12.13,72542.3,-15.63,-16.97,-16.97,0,*62
1494378147.17,15690,12.13,72538.0,-15.63,-17.07,-17.07,0,*6A
1494378148.41,15691,12.13,72540.0,-15.61,-16.97,-16.97,0,*69
1494378149.65,15692,12.13,72536.5,-15.61,-16.97,-16.97,0,*6A
1494378150.88,15693,12.13,72538.3,-15.61,-16.97,-16.97,0,*6B
1494378152.1,15694,12.13,72534.3,-15.63,-16.97,-16.93,0,*6A
1494378153.31,15695,12.13,72534.3,-15.63,-16.97,-16.97,0,*6F
1494378154.55,15696,12.13,72536.3,-15.61,-16.97,-16.93,0,*6A
1494378155.79,15697,12.13,72532.5,-15.63,-17.07,-16.93,0,*61
1494378157.05,15698,12.13,72532.8,-15.61,-17.07,-16.97,0,*68
1494378158.3,15699,12.13,72534.5,-15.63,-17.07,-16.97,0,*6B
1494378159.54,15700,12.13,72536.3,-15.63,-17.07,-16.93,0,*6E
1494378160.84,15701,12.13,72538.5,-15.61,-17.07,-17.07,0,*61
1494378162.08,15702,12.13,72536.5,-15.63,-17.07,-16.93,0,*6C
1494378163.29,15703,12.13,72532.5,-15.63,-16.97,-16.97,0,*61
1494378164.53,15704,12.13,72532.5,-15.63,-17.07,-16.97,0,*6E
1494378165.8,15705,12.13,72538.0,-15.65,-17.03,-16.97,0,*6D
1494378167.04,15706,12.13,72542.3,-15.65,-16.97,-16.97,0,*62
1494378168.29,15707,12.13,72536.5,-15.65,-16.97,-16.97,0,*63
1494378169.56,15708,12.13,72540.0,-15.65,-16.97,-17.03,0,*60
1494378170.8,15709,12.13,72534.8,-15.65,-16.97,-16.97,0,*6D
1494378172.04,15710,12.13,72530.3,-15.65,-16.97,-16.97,0,*65
1494378173.28,15711,12.13,72538.0,-15.65,-16.97,-16.97,0,*64
1494378174.55,15712,12.13,72536.8,-15.65,-17.03,-16.97,0,*6B
1494378175.8,15713,12.13,72532.3,-15.65,-16.97,-16.97,0,*66
1494378177.04,15714,12.13,72536.8,-15.65,-16.97,-16.89,0,*6E
1494378178.3,15715,12.13,72536.8,-15.65,-17.11,-16.97,0,*6F
1494378179.54,15716,12.13,72536.8,-15.65,-16.97,-16.89,0,*6C
1494378180.81,15717,12.13,72536.0,-15.65,-17.03,-16.97,0,*6E
1494378182.02,15718,12.13,72536.3,-15.63,-16.93,-16.93,0,*6B
1494378183.23,15719,12.13,72538.3,-15.67,-16.97,-16.97,0,*6E
1494378184.48,15720,12.13,72540.0,-15.65,-16.97,-16.97,0,*66
1494378185.72,15721,12.13,72538.3,-15.65,-16.89,-16.83,0,*6D
1494378186.96,15722,12.13,72538.5,-15.65,-16.97,-16.97,0,*64
1494378188.2,15723,12.13,72538.8,-15.65,-16.97,-16.89,0,*6A
1494378189.45,15724,12.13,72536.8,-15.65,-16.97,-16.97,0,*62
1494378190.69,15725,12.13,72536.8,-15.65,-16.97,-16.89,0,*6C
1494378191.93,15726,12.13,72536.3,-15.65,-16.89,-16.89,0,*60
1494378193.14,15727,12.13,72536.5,-15.67,-16.97,-16.89,0,*6C
1494378194.35,15728,12.13,72534.5,-15.67,-16.89,-16.89,0,*6C
1494378195.57,15729,12.13,72536.3,-15.67,-16.89,-16.97,0,*62
1494378196.81,15730,12.13,72532.8,-15.65,-16.89,-16.89,0,*67
1494378198.06,15731,12.13,72534.0,-15.65,-16.89,-16.75,0,*65
1494378199.28,15732,12.13,72538.5,-15.67,-16.89,-16.83,0,*6D
1494378200.52,15733,12.13,72536.0,-15.65,-16.89,-16.89,0,*64
1494378201.76,15734,12.13,72536.5,-15.65,-16.89,-16.83,0,*69
1494378203.0,15735,12.13,72534.5,-15.65,-16.83,-16.89,0,*68
1494378204.22,15736,12.13,72536.5,-15.67,-16.89,-16.83,0,*69
1494378205.44,15737,12.13,72532.0,-15.67,-16.89,-16.83,0,*68
1494378206.66,15738,12.13,72534.3,-15.67,-16.83,-16.89,0,*67
1494378207.88,15739,12.13,72532.5,-15.67,-16.89,-16.83,0,*66
1494378209.12,15740,12.13,72532.0,-15.65,-16.89,-16.83,0,*6A
1494378210.34,15741,12.13,72538.0,-15.67,-16.89,-16.83,0,*69
1494378211.59,15742,12.13,72534.3,-15.65,-16.83,-16.83,0,*62
1494378212.84,15743,12.13,72534.5,-15.65,-16.83,-16.75,0,*6A
1494378214.09,15744,12.13,72536.8,-15.65,-16.83,-16.75,0,*6D
1494378215.34,15745,12.13,72538.5,-15.65,-16.83,-16.75,0,*6C
1494378216.59,15746,12.13,72542.0,-15.65,-16.83,-16.83,0,*66
1494378217.81,15747,12.13,72538.8,-15.67,-16.75,-16.83,0,*6C
1494378219.03,15748,12.13,72538.5,-15.67,-16.75,-16.83,0,*63
1494378220.25,15749,12.13,72540.5,-15.67,-16.75,-16.75,0,*6B
1494378221.48,15750,12.13,72538.8,-15.67,-16.75,-16.83,0,*6A
1494378222.7,15751,12.13,72540.0,-15.67,-16.75,-16.83,0,*6B
1494378223.94,15752,12.13,72538.0,-15.65,-16.75,-16.83,0,*6A
1494378225.19,15753,12.13,72540.3,-15.65,-16.83,-16.83,0,*62
1494378226.44,15754,12.13,72536.3,-15.65,-16.75,-16.83,0,*6C
1494378227.69,15755,12.13,72542.5,-15.65,-16.83,-16.75,0,*6D
1494378228.94,15756,12.13,72542.0,-15.65,-16.83,-16.83,0,*67
1494378230.19,15757,12.13,72540.5,-15.65,-16.75,-16.75,0,*66
1494378231.41,15758,12.13,72540.3,-15.67,-16.83,-16.75,0,*62
1494378232.66,15759,12.13,72546.0,-15.65,-16.83,-16.75,0,*61
1494378233.89,15760,12.13,72544.3,-15.67,-16.83,-16.75,0,*69
1494378235.11,15761,12.13,72544.0,-15.67,-16.75,-16.75,0,*61
1494378236.34,15762,12.13,72546.0,-15.67,-16.75,-16.75,0,*62
1494378237.56,15763,12.13,72546.8,-15.67,-16.83,-16.83,0,*63
1494378238.78,15764,12.13,72546.8,-15.67,-16.83,-16.83,0,*64
1494378240.03,15765,12.13,72542.8,-15.65,-16.83,-16.83,0,*67
1494378241.25,15766,12.13,72542.8,-15.67,-16.83,-16.83,0,*66
1494378242.47,15767,12.13,72540.3,-15.67,-16.75,-16.75,0,*67
1494378243.7,15768,12.13,72542.3,-15.67,-16.75,-16.75,0,*68
1494378244.97,15769,12.13,72538.8,-15.65,-16.75,-16.69,0,*66
1494378246.21,15770,12.13,72542.3,-15.67,-16.75,-16.69,0,*6C
1494378247.48,15771,12.13,72538.5,-15.65,-16.83,-16.69,0,*66
1494378248.73,15772,12.13,72540.5,-15.65,-16.83,-16.75,0,*68
1494378249.98,15773,12.13,72538.8,-15.65,-16.83,-16.75,0,*69
1494378251.24,15774,12.13,72540.0,-15.65,-16.83,-16.75,0,*6E
1494378252.49,15775,12.13,72536.8,-15.65,-16.75,-16.75,0,*66
1494378253.74,15776,12.13,72538.8,-15.65,-16.75,-16.75,0,*65
1494378254.99,15777,12.13,72536.3,-15.65,-16.75,-16.75,0,*64
1494378256.23,15778,12.13,72540.0,-15.67,-16.75,-16.69,0,*64
1494378257.49,15779,12.13,72536.3,-15.65,-16.75,-16.75,0,*6A
1494378258.76,15780,12.13,72538.0,-15.65,-16.75,-16.69,0,*61
1494378260.0,15781,12.13,72540.5,-15.67,-16.75,-16.69,0,*62
1494378261.27,15782,12.13,72538.5,-15.65,-16.69,-16.75,0,*63
1494378262.53,15783,12.13,72540.0,-15.65,-16.75,-16.75,0,*6F
1494378263.77,15784,12.13,72538.3,-15.67,-16.83,-16.69,0,*6E
1494378265.02,15785,12.13,72536.0,-15.65,-16.75,-16.75,0,*69
1494378266.27,15786,12.13,72538.3,-15.65,-16.75,-16.75,0,*6A
1494378267.5,15787,12.13,72542.3,-15.67,-16.75,-16.75,0,*69
1494378268.77,15788,12.13,72540.0,-15.65,-16.75,-16.69,0,*69
1494378270.02,15789,12.13,72540.0,-15.67,-16.69,-16.75,0,*6A
1494378271.29,15790,12.13,72540.8,-15.65,-16.69,-16.75,0,*60
1494378272.54,15791,12.13,72542.5,-15.65,-16.75,-16.75,0,*6C
1494378273.79,15792,12.13,72542.8,-15.65,-16.75,-16.75,0,*6F
1494378275.07,15793,12.13,72542.3,-15.65,-16.75,-16.69,0,*63
1494378276.36,15794,12.13,72544.5,-15.65,-16.69,-16.69,0,*69
1494378277.61,15795,12.13,72544.5,-15.65,-16.75,-16.75,0,*68
1494378278.86,15796,12.13,72546.5,-15.65,-16.75,-16.75,0,*6B
1494378280.14,15797,12.13,72544.3,-15.65,-16.69,-16.75,0,*67
1494378281.41,15798,12.13,72548.3,-15.65,-16.69,-16.75,0,*68
1494378282.63,15799,12.13,72542.8,-15.67,-16.83,-16.83,0,*66
1494378283.88,15800,12.13,72544.0,-15.67,-16.75,-16.69,0,*64
1494378285.13,15801,12.13,72542.8,-15.65,-16.75,-16.59,0,*64
1494378286.37,15802,12.13,72542.0,-15.67,-16.75,-16.69,0,*66
1494378287.64,15803,12.13,72542.3,-15.63,-16.65,-16.69,0,*62
1494378288.91,15804,12.13,72546.8,-15.63,-16.69,-16.69,0,*69
1494378290.16,15805,12.13,72546.0,-15.65,-16.75,-16.75,0,*6E
1494378291.41,15806,12.13,72546.5,-15.65,-16.75,-16.75,0,*6D
1494378292.69,15807,12.13,72546.3,-15.65,-16.69,-16.75,0,*61
1494378293.94,15808,12.13,72544.3,-15.65,-16.75,-16.75,0,*63
1494378295.19,15809,12.13,72546.3,-15.65,-16.75,-16.75,0,*62
1494378296.47,15810,12.13,72544.0,-15.65,-16.69,-16.75,0,*67
1494378297.71,15811,12.13,72542.3,-15.67,-16.69,-16.75,0,*64
1494378298.99,15812,12.13,72544.5,-15.65,-16.75,-16.69,0,*65
1494378300.28,15813,12.13,72542.3,-15.65,-16.69,-16.69,0,*69
1494378301.55,15814,12.13,72542.8,-15.65,-16.75,-16.69,0,*63
1494378302.85,15815,12.13,72542.5,-15.65,-16.69,-16.69,0,*6F
1494378304.12,15816,12.13,72540.8,-15.65,-16.75,-16.69,0,*61
1494378305.39,15817,12.13,72544.5,-15.67,-16.69,-16.69,0,*6F
1494378306.66,15818,12.13,72540.5,-15.65,-16.75,-16.69,0,*6F
1494378307.93,15819,12.13,72540.8,-15.65,-16.83,-16.69,0,*67
1494378309.2,15820,12.13,72542.8,-15.63,-16.65,-16.65,0,*6F
1494378310.49,15821,12.13,72542.5,-15.65,-16.69,-16.69,0,*68
1494378311.77,15822,12.13,72542.5,-15.65,-16.69,-16.59,0,*68
1494378313.02,15823,12.13,72540.3,-15.65,-16.59,-16.59,0,*6A
1494378314.31,15824,12.13,72546.8,-15.65,-16.69,-16.69,0,*6D
1494378315.59,15825,12.13,72542.5,-15.65,-16.69,-16.59,0,*6F
1494378316.88,15826,12.13,72544.5,-15.65,-16.69,-16.69,0,*6F
1494378318.16,15827,12.13,72546.8,-15.65,-16.69,-16.59,0,*6D
1494378319.43,15828,12.13,72544.0,-15.63,-16.65,-16.65,0,*67
1494378320.69,15829,12.13,72540.0,-15.63,-16.69,-16.69,0,*66
1494378321.94,15830,12.13,72542.0,-15.67,-16.83,-16.69,0,*6E
1494378323.23,15831,12.13,72542.0,-15.65,-16.69,-16.69,0,*69
1494378324.51,15832,12.13,72544.5,-15.65,-16.69,-16.75,0,*67
1494378325.78,15833,12.13,72538.5,-15.67,-16.69,-16.69,0,*69
1494378327.03,15834,12.13,72540.0,-15.65,-16.75,-16.59,0,*62
1494378328.32,15835,12.13,72542.3,-15.65,-16.69,-16.69,0,*6D
1494378329.59,15836,12.13,72538.8,-15.63,-16.65,-16.65,0,*68
1494378330.86,15837,12.13,72540.8,-15.65,-16.59,-16.69,0,*6C
1494378332.13,15838,12.13,72540.8,-15.67,-16.69,-16.69,0,*62
1494378333.42,15839,12.13,72542.8,-15.65,-16.69,-16.69,0,*61
1494378334.72,15840,12.13,72538.8,-15.65,-16.69,-16.69,0,*6F
1494378335.99,15841,12.13,72542.5,-15.63,-16.65,-16.65,0,*68
1494378337.26,15842,12.13,72540.8,-15.65,-16.59,-16.69,0,*6E
1494378338.53,15843,12.13,72544.5,-15.63,-16.65,-16.65,0,*6A
1494378339.78,15844,12.13,72542.5,-15.63,-16.65,-16.55,0,*6E
1494378341.02,15845,12.13,72544.8,-15.63,-16.55,-16.65,0,*6F
1494378342.29,15846,12.13,72540.8,-15.65,-16.75,-16.69,0,*64
1494378343.59,15847,12.13,72540.8,-15.65,-16.69,-16.69,0,*68
1494378344.86,15848,12.13,72538.3,-15.63,-16.65,-16.65,0,*61
1494378346.13,15849,12.13,72540.8,-15.63,-16.65,-16.65,0,*60
1494378347.37,15850,12.13,72540.0,-15.63,-16.65,-16.55,0,*6B
1494378348.63,15851,12.13,72540.5,-15.65,-16.59,-16.59,0,*6F
1494378349.88,15852,12.13,72542.3,-15.65,-16.59,-16.59,0,*6C
1494378351.17,15853,12.13,72540.8,-15.65,-16.69,-16.69,0,*6D
1494378352.45,15854,12.13,72544.5,-15.65,-16.69,-16.59,0,*69
1494378353.72,15855,12.13,72540.8,-15.65,-16.69,-16.59,0,*68
1494378354.99,15856,12.13,72544.0,-15.65,-16.69,-16.59,0,*6B
1494378356.27,15857,12.13,72544.0,-15.65,-16.75,-16.69,0,*64
1494378357.54,15858,12.13,72546.5,-15.63,-16.65,-16.65,0,*60
1494378358.78,15859,12.13,72542.3,-15.63,-16.65,-16.55,0,*62
1494378360.03,15860,12.13,72542.5,-15.63,-16.65,-16.55,0,*68
1494378361.28,15861,12.13,72544.0,-15.63,-16.65,-16.55,0,*69
1494378362.57,15862,12.13,72540.8,-15.65,-16.69,-16.69,0,*6F
1494378363.85,15863,12.13,72542.0,-15.65,-16.69,-16.59,0,*6D
1494378365.14,15864,12.13,72544.5,-15.65,-16.69,-16.69,0,*69
1494378366.39,15865,12.13,72542.5,-15.63,-16.65,-16.55,0,*6D
1494378367.61,15866,12.13,72544.5,-15.63,-16.55,-16.55,0,*6D
1494378368.85,15867,12.13,72544.5,-15.63,-16.55,-16.65,0,*6F
1494378370.08,15868,12.13,72544.3,-15.63,-16.55,-16.55,0,*63
1494378371.35,15869,12.13,72544.5,-15.63,-16.65,-16.65,0,*62
1494378372.6,15870,12.13,72544.5,-15.65,-16.59,-16.59,0,*6C
1494378373.85,15871,12.13,72544.8,-15.67,-16.69,-16.59,0,*6C
1494378375.11,15872,12.13,72542.5,-15.63,-16.65,-16.65,0,*68
1494378376.39,15873,12.13,72544.5,-15.63,-16.65,-16.65,0,*69
1494378377.65,15874,12.13,72544.3,-15.63,-16.65,-16.65,0,*6E
1494378378.9,15875,12.13,72546.0,-15.63,-16.65,-16.55,0,*6C
1494378380.17,15876,12.13,72546.5,-15.63,-16.65,-16.65,0,*6C
1494378381.46,15877,12.13,72544.8,-15.61,-16.65,-16.65,0,*6F
1494378382.73,15878,12.13,72544.8,-15.63,-16.65,-16.65,0,*62
1494378383.98,15879,12.13,72544.3,-15.63,-16.65,-16.55,0,*60
1494378385.23,15880,12.13,72546.8,-15.63,-16.55,-16.65,0,*66
1494378386.5,15881,12.13,72544.8,-15.63,-16.65,-16.65,0,*64
1494378387.77,15882,12.13,72544.5,-15.63,-16.65,-16.65,0,*67
1494378389.04,15883,12.13,72544.0,-15.63,-16.65,-16.65,0,*66
1494378390.31,15884,12.13,72546.3,-15.63,-16.65,-16.65,0,*61
1494378391.58,15885,12.13,72546.3,-15.65,-16.69,-16.59,0,*65
1494378392.8,15886,12.13,72544.0,-15.63,-16.55,-16.55,0,*63
1494378394.07,15887,12.13,72544.0,-15.63,-16.65,-16.65,0,*62
1494378395.32,15888,12.13,72542.3,-15.63,-16.55,-16.65,0,*6E
1494378396.61,15889,12.13,72544.0,-15.61,-16.65,-16.65,0,*6E
1494378397.88,15890,12.13,72542.5,-15.63,-16.65,-16.65,0,*64
1494378399.1,15891,12.13,72542.5,-15.63,-16.55,-16.55,0,*65
1494378400.35,15892,12.13,72546.0,-15.63,-16.69,-16.55,0,*69
1494378401.59,15893,12.13,72542.5,-15.63,-16.65,-16.55,0,*64
1494378402.84,15894,12.13,72542.8,-15.63,-16.65,-16.55,0,*63
1494378404.11,15895,12.13,72546.0,-15.63,-16.65,-16.65,0,*61
1494378405.36,15896,12.13,72540.0,-15.63,-16.69,-16.55,0,*6D
1494378406.65,15897,12.13,72542.5,-15.61,-16.69,-16.65,0,*6D
1494378407.94,15898,12.13,72546.5,-15.61,-16.69,-16.65,0,*62
1494378409.21,15899,12.13,72544.0,-15.63,-16.69,-16.65,0,*61
1494378410.47,15900,12.13,72540.0,-15.63,-16.69,-16.65,0,*60
1494378411.74,15901,12.13,72542.0,-15.63,-16.69,-16.65,0,*61
1494378413.01,15902,12.13,72546.3,-15.63,-16.69,-16.65,0,*62
1494378414.3,15903,12.13,72542.3,-15.61,-16.69,-16.65,0,*61
1494378415.57,15904,12.13,72544.0,-15.63,-16.69,-16.65,0,*64
1494378416.84,15905,12.13,72542.3,-15.63,-16.69,-16.65,0,*65
1494378418.1,15906,12.13,72542.5,-15.61,-16.79,-16.69,0,*69
1494378419.37,15907,12.13,72542.8,-15.63,-16.69,-16.65,0,*67
1494378420.64,15908,12.13,72542.8,-15.63,-16.69,-16.69,0,*64
1494378421.93,15909,12.13,72540.5,-15.61,-16.69,-16.69,0,*67
1494378423.17,15910,12.13,72542.5,-15.63,-16.79,-16.69,0,*6C
1494378424.44,15911,12.13,72544.0,-15.63,-16.69,-16.69,0,*6C
1494378425.69,15912,12.13,72544.0,-15.63,-16.69,-16.79,0,*6E
1494378426.93,15913,12.13,72546.0,-15.63,-16.79,-16.69,0,*6F
1494378428.17,15914,12.13,72546.8,-15.63,-16.69,-16.79,0,*68
1494378429.39,15915,12.13,72544.3,-15.63,-16.79,-16.79,0,*68
1494378430.61,15916,12.13,72544.5,-15.63,-16.79,-16.79,0,*6B
1494378431.88,15917,12.13,72546.5,-15.63,-16.69,-16.65,0,*66
1494378433.15,15918,12.13,72544.3,-15.63,-16.69,-16.69,0,*65
1494378434.39,15919,12.13,72546.0,-15.63,-16.69,-16.79,0,*65
1494378435.64,15920,12.13,72546.3,-15.63,-16.69,-16.79,0,*6F
1494378436.9,15921,12.13,72546.0,-15.61,-16.79,-16.69,0,*6C
1494378438.12,15922,12.13,72546.5,-15.63,-16.79,-16.79,0,*6C
1494378439.34,15923,12.13,72544.3,-15.63,-16.79,-16.79,0,*6D
1494378440.59,15924,12.13,72540.3,-15.63,-16.79,-16.69,0,*6B
1494378441.88,15925,12.13,72542.5,-15.61,-16.69,-16.69,0,*69
1494378443.12,15926,12.13,72546.0,-15.63,-16.79,-16.69,0,*69
1494378444.34,15927,12.13,72542.3,-15.63,-16.79,-16.83,0,*6C
1494378445.56,15928,12.13,72544.3,-15.63,-16.79,-16.79,0,*66
1494378446.78,15929,12.13,72542.3,-15.63,-16.79,-16.79,0,*67
1494378448.0,15930,12.13,72542.8,-15.63,-16.79,-16.79,0,*6F
1494378449.24,15931,12.13,72542.5,-15.61,-16.79,-16.79,0,*6C
1494378450.49,15932,12.13,72544.8,-15.63,-16.69,-16.79,0,*6C
1494378451.75,15933,12.13,72540.8,-15.61,-16.69,-16.79,0,*6F
1494378453.0,15934,12.13,72544.0,-15.63,-16.79,-16.69,0,*6A
1494378454.24,15935,12.13,72540.0,-15.63,-16.79,-16.69,0,*6B
1494378455.49,15936,12.13,72540.3,-15.63,-16.83,-16.69,0,*6D
1494378456.75,15937,12.06,72536.0,-15.61,-16.83,-16.69,0,*6E
1494378457.97,15938,12.13,72542.0,-15.63,-16.83,-16.79,0,*62
1494378459.19,15939,12.06,72540.3,-15.63,-16.79,-16.79,0,*66
1494378460.41,15940,12.13,72540.3,-15.63,-16.83,-16.79,0,*6D
1494378461.66,15941,12.13,72540.0,-15.65,-16.89,-16.75,0,*6C
1494378462.91,15942,12.13,72542.3,-15.65,-16.83,-16.83,0,*6C
1494378464.13,15943,12.13,72540.8,-15.63,-16.83,-16.79,0,*6E
1494378465.35,15944,12.13,72540.8,-15.63,-16.83,-16.79,0,*69
1494378466.59,15945,12.06,72538.5,-15.61,-16.79,-16.79,0,*6F
1494378467.81,15946,12.13,72540.0,-15.63,-16.79,-16.79,0,*6E
1494378469.03,15947,12.13,72540.3,-15.63,-16.79,-16.79,0,*6F
1494378470.25,15948,12.13,72540.0,-15.63,-16.79,-16.79,0,*60
1494378471.47,15949,12.13,72544.5,-15.63,-16.79,-16.79,0,*61
1494378472.72,15950,12.13,72542.0,-15.63,-16.69,-16.79,0,*68
1494378473.96,15951,12.13,72542.0,-15.63,-16.79,-16.69,0,*69
1494378475.18,15952,12.13,72542.5,-15.63,-16.79,-16.79,0,*6B
1494378476.45,15953,12.06,72540.8,-15.61,-16.79,-16.69,0,*69
1494378477.67,15954,12.13,72544.5,-15.63,-16.83,-16.79,0,*68
1494378478.89,15955,12.13,72540.8,-15.63,-16.83,-16.79,0,*69
1494378480.11,15956,12.13,72540.0,-15.63,-16.79,-16.79,0,*6F
1494378481.35,15957,12.13,72544.3,-15.63,-16.83,-16.69,0,*6A
1494378482.6,15958,12.06,72540.8,-15.65,-16.89,-16.83,0,*6D
1494378483.84,15959,12.06,72540.5,-15.65,-16.89,-16.83,0,*6C
1494378485.06,15960,12.13,72542.5,-15.63,-16.83,-16.83,0,*6A
1494378486.31,15961,12.13,72540.3,-15.61,-16.83,-16.83,0,*69
1494378487.55,15962,12.13,72542.0,-15.65,-16.89,-16.83,0,*64
1494378488.79,15963,12.13,72542.8,-15.65,-16.89,-16.89,0,*6F
1494378490.04,15964,12.13,72540.0,-15.65,-16.89,-16.83,0,*62
1494378491.28,15965,12.06,72542.0,-15.65,-16.89,-16.83,0,*63
1494378492.53,15966,12.13,72544.5,-15.65,-16.83,-16.75,0,*63